Temp
-8 -8 -8 -8 -8 -8 -8 -8 -9 -9 -9 -9 -9 -9 -9 -9 -9 -9 -9 -8 -8 -8 -8 -8 -8 -8 -8 -8 -9 -9 -9 -9 -9 -9 -10 -10 -10 -10 -11 -11 -11 -11 -11 -11 -11
-8 -8 -8 -8 -8 -8 -8 -8 -8 -9 -9 -8 -9 -9 -9 -9 -8 -8 -8 -8 -8 -8 -9 -8 -8 -8 -8 -9 -9 -9 -9 -9 -9 -10 -10 -10 -10 -11 -11 -11 -11 -11 -11 -11 -11
-8 -8 -8 -8 -8 -8 -8 -8 -8 -8 -9 -9 -8 -8 -9 -9 -9 -8 -8 -8 -8 -8 -8 -8 -8 -8 -8 -9 -9 -9 -9 -9 -9 -10 -10 -10 -11 -11 -11 -11 -11 -11 -11 -11 -11
-8 -8 -8 -8 -8 -8 -8 -7 -8 -8 -8 -8 -8 -8 -8 -8 -8 -9 -8 -8 -8 -8 -8 -8 -8 -8 -8 -8 -9 -9 -9 -9 -9 -10 -10 -11 -11 -11 -11 -11 -10 -11 -11 -11 -11
-8 -8 -8 -8 -8 -8 -8 -8 -7 -8 -8 -8 -8 -8 -8 -8 -8 -8 -8 -8 -8 -8 -8 -8 -8 -8 -8 -9 -9 -8 -9 -9 -10 -10 -11 -11 -11 -11 -10 -10 -11 -11 -11 -11 -12
-7 -8 -8 -8 -8 -8 -8 -8 -8 -8 -8 -8 -8 -8 -8 -8 -8 -8 -8 -8 -8 -8 -8 -8 -8 -8 -8 -8 -8 -9 -9 -10 -10 -11 -11 -11 -11 -11 -10 -11 -11 -11 -11 -12 -12
-7 -7 -7 -8 -8 -8 -8 -8 -8 -8 -8 -8 -8 -8 -8 -8 -8 -8 -8 -8 -8 -8 -8 -8 -8 -8 -8 -8 -8 -9 -9 -10 -10 -11 -11 -11 -11 -10 -11 -11 -11 -11 -12 -12 -13
-6 -6 -7 -7 -8 -8 -8 -8 -8 -8 -8 -8 -8 -8 -8 -9 -9 -8 -8 -8 -8 -8 -8 -8 -8 -8 -8 -8 -9 -9 -9 -10 -11 -11 -11 -11 -11 -10 -11 -11 -11 -11 -12 -12 -13
-6 -6 -7 -7 -7 -8 -8 -8 -8 -8 -8 -8 -8 -8 -8 -9 -9 -9 -8 -8 -8 -8 -8 -8 -8 -8 -8 -9 -9 -9 -9 -10 -11 -10 -11 -11 -10 -10 -11 -11 -11 -12 -12 -13 -14
-6 -6 -6 -7 -7 -7 -8 -8 -8 -8 -9 -8 -8 -8 -8 -8 -9 -9 -8 -8 -8 -8 -8 -8 -8 -8 -8 -9 -9 -9 -9 -10 -10 -10 -11 -10 -10 -10 -11 -11 -11 -12 -12 -13 -14
-6 -6 -6 -7 -7 -7 -8 -8 -8 -8 -8 -9 -8 -8 -9 -9 -9 -9 -9 -9 -8 -8 -8 -8 -8 -8 -9 -9 -8 -9 -9 -10 -10 -10 -10 -10 -10 -11 -11 -11 -11 -12 -12 -13 -15
-6 -6 -6 -6 -7 -7 -7 -8 -8 -8 -8 -8 -9 -9 -9 -9 -9 -9 -9 -9 -8 -8 -8 -8 -8 -8 -9 -9 -8 -9 -9 -10 -10 -10 -10 -10 -10 -11 -11 -11 -11 -12 -12 -13 -15
-6 -6 -6 -6 -7 -7 -7 -7 -8 -8 -8 -9 -9 -9 -9 -9 -9 -9 -9 -9 -9 -8 -8 -8 -8 -9 -9 -9 -9 -9 -9 -9 -10 -10 -10 -10 -10 -10 -11 -11 -11 -12 -11 -12 -14
-6 -6 -6 -7 -7 -7 -7 -7 -8 -8 -9 -9 -9 -9 -9 -9 -9 -9 -9 -9 -9 -9 -9 -8 -8 -9 -9 -9 -9 -9 -9 -9 -9 -10 -9 -10 -10 -10 -11 -11 -11 -11 -11 -11 -13
-5 -6 -6 -7 -7 -7 -7 -7 -8 -8 -9 -9 -9 -9 -9 -9 -9 -9 -9 -9 -9 -9 -9 -9 -9 -9 -9 -9 -9 -9 -9 -9 -9 -10 -9 -10 -10 -11 -11 -11 -11 -11 -10 -11 -11
-6 -6 -6 -6 -7 -7 -7 -7 -8 -8 -9 -9 -9 -9 -9 -9 -9 -9 -9 -9 -9 -9 -9 -9 -9 -9 -9 -9 -9 -9 -9 -9 -9 -10 -10 -10 -10 -11 -11 -11 -10 -10 -10 -10 -11
-6 -6 -6 -6 -7 -7 -7 -8 -8 -8 -9 -9 -9 -9 -10 -9 -9 -9 -9 -9 -9 -9 -9 -9 -9 -9 -9 -9 -9 -9 -9 -9 -9 -10 -10 -10 -10 -10 -11 -10 -10 -10 -10 -10 -10
-6 -6 -6 -7 -6 -7 -7 -8 -8 -8 -8 -9 -9 -10 -10 -10 -10 -9 -9 -10 -10 -10 -9 -9 -9 -9 -9 -9 -9 -9 -9 -9 -9 -9 -10 -10 -10 -10 -10 -10 -10 -10 -10 -10 -10
-6 -6 -7 -7 -7 -7 -7 -8 -8 -8 -8 -8 -9 -9 -10 -10 -10 -10 -10 -10 -10 -10 -10 -9 -9 -9 -9 -9 -9 -9 -9 -9 -9 -9 -9 -10 -10 -10 -10 -10 -10 -10 -10 -10 -10
-6 -7 -7 -7 -7 -7 -7 -8 -8 -8 -8 -8 -8 -9 -10 -10 -10 -10 -10 -10 -10 -10 -10 -10 -10 -9 -9 -9 -9 -9 -9 -9 -9 -9 -9 -10 -10 -10 -10 -10 -10 -10 -10 -10 -10
-7 -7 -7 -7 -7 -7 -8 -8 -8 -8 -8 -8 -8 -9 -9 -10 -10 -11 -11 -10 -10 -10 -10 -10 -10 -10 -10 -9 -9 -9 -9 -9 -9 -9 -9 -9 -10 -10 -10 -10 -10 -10 -10 -10 -10
-7 -7 -7 -7 -7 -7 -8 -8 -8 -8 -8 -9 -8 -9 -9 -10 -10 -11 -11 -11 -11 -11 -10 -10 -10 -10 -10 -10 -10 -9 -9 -9 -9 -9 -9 -9 -9 -10 -10 -10 -10 -10 -10 -10 -10
-8 -7 -8 -7 -8 -8 -8 -8 -8 -8 -9 -9 -9 -9 -9 -9 -10 -11 -11 -11 -11 -11 -11 -11 -10 -10 -10 -10 -10 -10 -10 -9 -9 -9 -9 -9 -9 -9 -10 -10 -10 -10 -10 -11 -11
-8 -7 -8 -8 -8 -8 -8 -8 -8 -9 -9 -9 -9 -9 -10 -10 -10 -10 -11 -12 -12 -11 -11 -11 -11 -11 -10 -10 -10 -10 -10 -10 -9 -9 -9 -9 -10 -10 -9 -10 -10 -10 -10 -11 -11
-8 -8 -8 -8 -9 -8 -8 -8 -9 -9 -9 -9 -9 -9 -10 -10 -10 -10 -11 -12 -12 -12 -12 -11 -11 -11 -11 -11 -10 -10 -10 -10 -10 -10 -9 -9 -9 -10 -9 -9 -10 -10 -10 -11 -11
-8 -8 -8 -9 -9 -9 -9 -9 -9 -9 -9 -9 -9 -10 -9 -9 -10 -10 -10 -11 -12 -12 -12 -12 -11 -12 -12 -11 -11 -10 -10 -10 -10 -10 -10 -9 -9 -9 -9 -9 -10 -10 -10 -10 -11
-8 -8 -8 -9 -9 -9 -9 -9 -9 -9 -9 -10 -10 -10 -10 -10 -10 -10 -10 -11 -11 -12 -12 -12 -12 -12 -12 -12 -12 -10 -11 -11 -11 -10 -10 -10 -10 -10 -9 -10 -10 -10 -10 -10 -10
Height
5880 5880 5881 5881 5880 5880 5880 5880 5880 5880 5880 5881 5881 5881 5881 5882 5882 5882 5882 5883 5883 5883 5884 5884 5884 5883 5883 5882 5881 5879 5878 5876 5873 5870 5867 5864 5861 5858 5856 5853 5850 5847 5843 5838 5833
5878 5879 5880 5879 5879 5879 5879 5879 5879 5879 5880 5880 5881 5881 5881 5882 5882 5882 5882 5883 5883 5884 5885 5885 5884 5884 5883 5881 5880 5879 5877 5874 5871 5868 5865 5862 5859 5856 5854 5851 5847 5843 5839 5834 5828
5878 5877 5878 5878 5879 5878 5878 5878 5879 5878 5879 5879 5880 5880 5881 5881 5882 5882 5882 5883 5884 5884 5884 5885 5885 5884 5883 5881 5880 5878 5875 5872 5868 5865 5862 5859 5857 5854 5851 5848 5844 5840 5834 5828 5821
5876 5877 5876 5876 5877 5877 5877 5877 5877 5878 5878 5878 5879 5880 5880 5881 5883 5881 5882 5883 5884 5884 5884 5884 5884 5883 5882 5881 5879 5877 5874 5870 5867 5863 5860 5857 5855 5852 5849 5846 5842 5837 5831 5824 5816
5876 5876 5875 5875 5875 5875 5876 5876 5876 5876 5877 5877 5878 5878 5879 5880 5881 5881 5881 5882 5884 5884 5884 5884 5883 5882 5881 5880 5878 5876 5873 5869 5865 5861 5858 5855 5853 5850 5847 5844 5839 5834 5827 5819 5810
5875 5874 5874 5874 5874 5874 5874 5875 5875 5875 5876 5875 5876 5877 5878 5879 5879 5880 5880 5881 5883 5884 5884 5883 5882 5881 5880 5879 5878 5875 5871 5867 5863 5859 5856 5854 5851 5848 5846 5842 5836 5830 5822 5813 5804
5875 5873 5872 5872 5872 5872 5873 5873 5873 5874 5874 5874 5874 5875 5876 5877 5877 5878 5879 5881 5881 5883 5883 5883 5882 5881 5880 5878 5877 5874 5870 5866 5861 5858 5855 5853 5850 5847 5844 5840 5834 5827 5818 5808 5798
5875 5873 5871 5870 5869 5869 5870 5871 5871 5871 5872 5872 5873 5873 5874 5875 5875 5876 5878 5880 5880 5881 5882 5882 5881 5881 5879 5878 5876 5873 5869 5864 5860 5856 5854 5852 5849 5846 5843 5838 5831 5823 5814 5803 5793
5873 5872 5871 5869 5867 5867 5867 5867 5868 5869 5870 5870 5871 5871 5872 5873 5873 5874 5875 5877 5879 5880 5880 5881 5880 5879 5878 5877 5875 5872 5868 5863 5859 5856 5853 5851 5848 5845 5841 5836 5829 5821 5810 5799 5788
5875 5872 5869 5868 5867 5865 5864 5864 5865 5867 5867 5868 5868 5870 5869 5871 5872 5872 5873 5875 5876 5878 5879 5879 5879 5879 5877 5876 5874 5871 5867 5862 5858 5856 5852 5850 5847 5844 5840 5835 5827 5818 5807 5796 5784
5874 5872 5870 5868 5867 5865 5863 5862 5865 5865 5864 5866 5867 5867 5867 5868 5869 5870 5872 5873 5874 5876 5877 5878 5878 5877 5877 5875 5873 5870 5866 5862 5857 5854 5851 5849 5847 5844 5839 5834 5826 5816 5805 5793 5784
5873 5872 5870 5867 5865 5863 5862 5861 5861 5861 5861 5861 5863 5864 5865 5866 5866 5867 5869 5871 5872 5873 5875 5876 5876 5876 5876 5874 5873 5870 5866 5862 5858 5854 5851 5848 5846 5843 5839 5833 5825 5816 5805 5792 5784
5872 5871 5869 5867 5864 5864 5862 5861 5859 5858 5858 5859 5859 5861 5862 5863 5864 5864 5866 5867 5869 5871 5872 5873 5875 5875 5874 5873 5872 5869 5865 5862 5858 5854 5850 5848 5846 5842 5839 5833 5825 5816 5804 5793 5785
5869 5868 5867 5865 5864 5862 5862 5860 5859 5857 5856 5857 5856 5858 5859 5860 5861 5862 5862 5865 5866 5868 5870 5871 5872 5872 5873 5872 5871 5869 5865 5861 5858 5854 5851 5848 5846 5842 5838 5832 5825 5816 5806 5796 5787
5868 5866 5865 5863 5863 5861 5860 5858 5857 5855 5855 5855 5854 5854 5855 5858 5858 5858 5859 5860 5863 5864 5867 5869 5868 5870 5870 5871 5869 5868 5865 5861 5858 5854 5850 5848 5845 5841 5836 5831 5825 5818 5810 5801 5791
5865 5864 5863 5861 5860 5859 5858 5857 5856 5855 5852 5852 5851 5851 5852 5853 5855 5855 5856 5858 5859 5861 5863 5864 5865 5866 5867 5868 5868 5866 5865 5861 5857 5854 5851 5847 5844 5841 5836 5831 5826 5820 5813 5806 5798
5862 5861 5860 5858 5857 5855 5854 5854 5854 5850 5851 5850 5848 5849 5848 5849 5851 5853 5853 5854 5855 5857 5858 5860 5862 5863 5864 5865 5865 5864 5863 5861 5858 5854 5851 5847 5844 5840 5836 5831 5827 5822 5816 5810 5804
5857 5857 5857 5855 5854 5852 5851 5851 5851 5849 5846 5845 5845 5845 5846 5846 5847 5848 5850 5850 5850 5852 5853 5856 5859 5859 5860 5861 5862 5862 5860 5859 5856 5854 5850 5846 5843 5840 5836 5832 5828 5823 5818 5813 5807
5852 5851 5851 5850 5850 5850 5848 5847 5846 5845 5845 5842 5841 5841 5842 5842 5843 5843 5845 5846 5847 5847 5850 5850 5853 5854 5855 5856 5858 5858 5858 5857 5855 5853 5850 5846 5843 5839 5836 5832 5828 5824 5819 5814 5809
5846 5846 5845 5845 5845 5845 5844 5843 5840 5839 5839 5839 5838 5838 5837 5837 5838 5838 5839 5841 5842 5842 5844 5846 5848 5849 5850 5851 5853 5853 5855 5854 5852 5851 5848 5845 5842 5838 5834 5831 5827 5823 5819 5815 5810
5840 5840 5839 5838 5839 5840 5839 5837 5834 5833 5833 5835 5834 5834 5833 5832 5832 5833 5834 5835 5836 5837 5838 5840 5842 5845 5846 5846 5847 5848 5848 5850 5849 5848 5845 5843 5841 5837 5833 5830 5827 5822 5818 5814 5810
5832 5833 5832 5832 5833 5833 5833 5831 5831 5827 5827 5828 5829 5828 5828 5827 5827 5827 5828 5828 5830 5831 5832 5833 5835 5838 5840 5840 5841 5842 5842 5843 5844 5844 5842 5840 5840 5835 5831 5828 5825 5821 5817 5813 5808
5824 5824 5825 5825 5825 5825 5825 5824 5824 5823 5821 5823 5822 5822 5821 5822 5822 5822 5822 5823 5824 5825 5826 5827 5829 5830 5833 5835 5834 5835 5836 5836 5837 5839 5839 5837 5836 5832 5829 5825 5822 5819 5815 5812 5807
5815 5815 5817 5815 5817 5817 5816 5817 5817 5816 5814 5814 5815 5814 5815 5815 5815 5815 5816 5817 5817 5818 5819 5821 5822 5824 5826 5827 5828 5829 5829 5829 5829 5832 5832 5834 5831 5828 5827 5823 5819 5816 5813 5809 5805
5803 5806 5807 5808 5807 5806 5807 5809 5808 5808 5807 5806 5807 5809 5808 5808 5808 5808 5808 5809 5810 5811 5811 5813 5815 5816 5817 5817 5819 5821 5822 5822 5823 5824 5824 5827 5827 5820 5822 5820 5817 5813 5810 5806 5803
5794 5794 5794 5796 5797 5797 5797 5800 5799 5798 5799 5799 5800 5800 5800 5802 5802 5801 5801 5801 5803 5804 5803 5805 5807 5808 5810 5809 5810 5811 5814 5815 5816 5816 5816 5817 5821 5815 5816 5815 5813 5810 5806 5803 5800
5782 5783 5784 5786 5786 5787 5789 5789 5789 5789 5792 5791 5792 5793 5793 5794 5794 5794 5794 5794 5793 5795 5795 5796 5797 5798 5800 5801 5800 5802 5808 5806 5809 5808 5807 5808 5810 5810 5810 5809 5808 5806 5803 5800 5796
Wind_Speed
6 4 5 8 8 7 8 7 3 3 3 4 4 5 5 6 6 6 6 7 8 9 9 7 6 5 5 7 8 10 11 13 15 17 19 18 18 18 18 19 20 22 24 25 29
7 6 4 4 6 7 6 7 4 2 2 2 3 2 4 5 5 5 4 7 7 8 6 5 4 5 6 8 10 11 13 15 17 18 19 18 17 16 17 18 20 21 24 28 34
7 6 6 6 5 5 6 5 4 3 2 2 1 2 2 2 3 3 5 5 6 6 5 3 3 5 7 9 10 13 15 18 19 19 19 18 15 15 16 18 19 23 28 34 40
7 6 6 7 7 5 3 4 4 3 3 4 3 1 1 2 1 2 6 5 4 4 3 2 4 7 8 10 13 15 17 19 21 21 19 15 13 14 16 17 21 27 33 38 43
6 6 7 6 8 8 5 3 4 4 3 4 5 3 2 1 2 3 7 6 4 3 2 2 4 6 7 12 14 16 18 21 22 20 16 12 12 15 15 18 25 31 36 42 46
13 6 8 9 8 10 10 6 4 5 5 4 5 5 4 3 3 5 8 8 5 2 1 2 4 6 8 12 13 17 20 22 22 19 12 12 14 14 16 22 28 34 41 45 48
18 15 8 7 7 7 11 11 7 6 6 6 5 6 5 5 4 7 10 9 7 3 2 2 4 5 9 10 14 17 21 22 21 15 11 13 14 13 17 25 30 38 43 47 50
18 17 16 10 6 6 9 11 12 8 8 7 6 6 6 6 5 9 11 11 9 5 3 3 3 3 7 9 13 16 21 23 20 12 12 14 13 14 20 26 34 40 44 49 55
10 15 18 15 11 7 8 9 12 12 11 9 8 7 7 8 7 10 12 12 9 6 4 3 3 2 5 8 13 16 21 22 18 11 13 13 11 15 22 29 37 40 45 50 43
9 11 14 17 15 11 7 9 9 13 13 12 9 9 8 8 9 10 13 14 12 8 5 4 3 2 2 8 12 16 20 22 16 12 13 13 11 16 22 31 36 40 45 48 34
8 8 12 15 17 15 11 8 10 11 12 14 12 11 10 9 11 11 14 15 13 10 7 4 4 3 1 6 10 14 18 21 14 12 12 11 11 17 24 31 35 40 45 43 27
8 8 10 14 16 16 13 11 9 11 11 13 13 13 11 11 12 12 14 16 15 11 8 5 5 4 2 4 8 12 17 19 14 13 11 9 12 18 24 29 33 39 42 36 24
10 8 8 11 15 18 17 15 12 11 12 12 13 14 13 12 13 13 14 17 16 13 10 7 6 6 4 2 6 10 15 18 16 13 11 9 12 16 22 28 33 38 43 38 25
12 9 8 9 11 16 20 17 15 13 11 13 12 13 14 13 13 15 15 18 18 15 12 9 8 8 7 3 3 8 13 16 18 13 12 9 11 15 21 27 32 37 44 43 35
16 12 9 8 11 14 16 18 17 14 11 11 10 11 13 14 13 15 16 18 20 18 15 12 10 10 10 6 3 4 10 14 17 17 12 10 9 13 19 26 30 35 41 41 39
17 16 12 10 11 13 16 17 18 13 11 10 11 10 10 13 15 15 18 19 21 21 18 15 12 12 12 9 7 2 6 11 15 17 16 11 10 12 17 23 27 31 35 40 40
18 18 17 16 11 11 15 15 15 15 14 10 10 14 13 14 15 16 18 19 21 22 21 19 15 15 14 13 10 8 4 7 11 16 18 14 11 10 14 19 23 26 28 31 33
20 19 21 19 15 12 13 15 16 16 16 13 14 14 16 14 15 18 17 20 22 24 24 21 19 16 16 16 14 12 8 7 10 14 17 16 13 9 11 14 17 21 23 23 26
20 20 19 20 19 15 14 14 16 20 18 17 15 16 17 18 17 17 19 19 23 25 26 25 22 19 18 18 17 15 13 8 8 9 12 17 16 12 9 10 13 16 18 20 21
20 21 21 21 21 19 16 15 18 21 21 21 18 16 17 19 19 18 20 20 22 24 27 27 26 23 20 21 21 18 17 14 10 9 11 13 16 14 11 9 8 11 13 15 18
24 23 24 23 23 20 18 17 21 23 23 22 22 19 18 20 21 21 19 22 22 23 27 29 29 25 24 22 23 22 20 20 16 13 12 12 14 17 14 10 8 6 9 13 14
24 26 26 26 26 23 22 22 22 25 25 23 22 22 20 21 22 23 21 21 23 24 25 29 31 30 28 25 25 25 25 23 22 18 14 13 13 14 17 14 11 10 6 7 10
27 28 27 28 28 27 27 26 26 26 26 25 24 25 22 22 23 24 24 22 23 25 26 27 30 32 31 29 28 27 27 26 25 23 19 15 16 13 15 18 16 12 11 9 6
30 30 31 31 30 31 30 28 27 27 27 28 28 28 25 22 23 25 26 27 25 25 27 28 29 31 33 34 32 30 28 29 28 24 25 16 15 20 14 17 18 16 13 12 11
31 32 33 34 33 33 32 28 29 30 29 29 30 27 28 26 25 25 27 28 30 31 30 31 30 32 32 36 35 34 32 31 30 28 28 23 19 25 17 16 18 18 16 15 13
36 34 37 36 36 35 34 30 30 32 32 30 30 31 32 29 26 26 27 28 29 32 34 33 34 34 33 35 37 37 34 34 30 31 31 30 22 26 21 19 18 18 18 16 16
39 39 38 38 37 37 35 35 34 32 32 30 30 31 32 31 30 27 25 26 30 29 33 36 35 36 36 36 39 39 31 36 33 31 34 33 29 29 25 23 20 18 16 17 17
Wind_Direction
287 321 346 8 14 3 17 11 23 11 29 11 58 76 65 51 40 36 48 99 105 109 114 106 92 74 42 21 8 2 350 339 331 324 323 322 321 319 319 322 320 319 319 323 323
307 280 289 330 9 10 5 13 11 337 341 34 8 39 71 58 41 27 71 119 116 120 120 89 58 34 14 3 360 353 345 337 329 325 327 326 323 323 325 323 321 323 326 326 328
318 317 268 274 310 2 3 5 360 337 301 302 35 9 13 67 57 46 124 127 123 123 120 82 38 18 5 1 355 350 344 337 330 332 333 332 330 328 326 325 328 330 332 334 332
321 306 310 267 264 293 350 348 343 332 297 282 282 262 23 342 272 108 148 150 135 125 121 66 18 8 7 3 353 350 343 335 333 337 337 335 333 331 330 332 332 337 336 333 331
336 319 307 304 273 258 276 326 313 313 302 279 269 265 256 260 267 203 168 166 159 122 118 64 19 7 12 358 352 350 341 336 338 339 339 341 337 337 336 336 341 339 336 334 332
12 337 315 309 304 276 261 270 295 292 295 292 267 257 254 260 242 213 190 178 175 161 127 9 13 9 3 353 354 348 341 340 343 343 347 345 341 343 340 345 345 342 339 335 332
11 15 350 308 302 298 276 260 264 286 281 284 282 257 246 244 230 212 193 192 185 192 263 332 356 4 356 356 355 347 344 345 346 347 350 345 342 340 345 349 347 345 338 335 337
353 4 11 356 308 286 295 275 257 260 275 274 278 259 243 243 226 200 198 197 197 202 254 306 336 355 354 1 354 348 350 350 350 350 351 347 341 344 353 351 350 345 341 338 342
352 349 360 5 353 304 290 292 264 256 263 267 264 262 241 242 232 203 202 200 207 216 239 285 297 336 355 1 356 353 354 354 352 353 348 352 344 351 354 355 353 347 344 343 349
334 340 347 353 1 345 292 282 283 268 264 263 262 259 244 237 236 221 209 204 205 218 241 268 263 294 355 6 1 357 358 356 357 357 349 355 351 354 358 359 353 351 347 348 358
332 326 332 340 349 353 338 288 291 279 269 272 265 262 250 234 232 231 219 211 208 213 232 259 244 274 307 10 9 9 7 1 0 1 355 4 359 359 4 1 357 357 354 353 12
342 321 322 323 331 342 353 336 291 281 273 272 268 259 255 252 234 232 223 217 213 213 224 245 237 255 246 8 17 19 18 9 3 6 2 2 5 8 10 1 5 5 4 9 25
349 333 313 316 321 330 341 344 334 291 275 277 271 264 256 253 249 235 225 219 217 219 220 233 230 243 234 337 19 25 26 16 10 10 10 1 15 17 13 8 12 14 18 24 35
347 335 321 303 319 319 329 339 345 327 285 272 274 266 256 252 248 241 227 221 220 221 223 226 227 234 228 265 4 25 31 21 16 15 15 7 16 22 16 16 19 22 24 27 38
344 340 330 323 308 310 316 330 339 329 308 288 277 268 259 258 249 244 236 225 222 223 224 227 225 229 228 248 267 15 23 20 16 18 14 10 12 21 20 23 25 29 30 33 39
334 334 325 321 313 305 308 319 326 322 309 292 275 268 269 264 255 247 242 232 225 225 227 227 229 226 231 238 246 285 6 14 11 15 19 7 8 12 24 28 27 35 37 40 44
325 321 316 313 308 307 302 307 318 313 312 305 279 267 261 263 262 257 246 239 232 227 228 228 229 228 230 233 244 251 309 358 10 6 12 13 8 8 23 31 28 36 40 45 42
321 318 312 310 302 298 298 301 307 300 303 300 289 270 264 261 261 260 258 244 237 232 228 229 231 231 231 234 241 252 264 316 359 2 359 12 9 5 14 34 29 33 36 40 44
310 315 302 302 298 296 294 295 293 292 290 296 294 281 266 263 262 261 258 255 245 238 234 231 229 234 232 235 237 246 258 273 314 341 356 2 10 360 359 23 32 28 28 30 28
297 303 301 292 292 293 288 287 279 278 283 285 293 295 276 264 262 259 259 257 252 245 238 236 234 235 237 236 238 243 252 264 283 309 341 355 356 358 346 352 30 27 23 20 23
289 293 291 290 287 290 289 273 273 275 278 279 284 288 287 273 265 261 258 258 255 253 245 239 238 234 239 239 240 241 247 259 269 287 309 334 343 348 347 331 335 20 22 19 15
282 283 285 286 286 281 281 269 267 274 276 278 279 285 284 283 270 263 260 260 259 255 251 246 241 242 241 242 242 243 246 251 261 268 286 305 322 338 340 337 316 323 345 13 12
274 276 280 284 283 277 275 271 268 269 274 276 272 273 278 279 276 266 261 260 260 259 255 252 248 243 244 244 245 246 246 249 253 264 272 286 298 314 326 332 328 307 314 325 339
270 274 277 276 279 277 270 270 273 268 268 273 271 268 273 273 273 272 260 259 259 261 262 259 254 250 246 246 247 247 249 248 249 256 263 274 282 296 305 316 323 320 301 310 317
263 271 271 274 274 273 267 263 268 271 266 265 267 268 267 269 269 270 267 257 257 257 259 262 259 257 253 249 248 250 252 253 253 253 258 264 273 275 296 300 311 319 315 300 305
263 264 266 267 270 270 266 260 263 265 266 264 266 264 265 270 269 265 269 273 263 259 261 262 264 262 255 257 254 248 252 256 258 258 256 258 262 273 281 284 293 307 315 313 302
260 264 262 264 265 267 261 254 259 264 267 269 265 265 265 268 268 265 266 270 274 263 260 261 263 266 261 257 257 253 253 257 259 261 259 256 259 263 271 280 279 289 303 314 314